Zurück zum Katalog

FENGYUN 1C DEB

AktivSSO
NORAD 29979·DEBRIS·🇨🇳 China

Gestartet May 10, 1999 von Taiyuan Satellite Launch Center

Loading…

Nächste Überflüge (nächste 24 Stunden)

TLE

AktuellSource: Space-Track

Epoche: Sep 14, 2026, 01:13 UTC

1 29979U 99025LD  26257.05128693  .00000688  00000-0  28445-3 0  9995
2 29979  98.3540 272.8783 0107880  73.9910 347.9241 14.26489603 19987

Verfolge FENGYUN 1C DEB in Echtzeit mit AllMySat

Download on the App Store